Time,TemperatureF,DewpointF,PressureIn,WindDirection,WindDirectionDegrees,WindSpeedMPH,WindSpeedGustMPH,Humidity,HourlyPrecipIn,Conditions,Clouds,dailyrainin,SoftwareType,DateUTC
2013-09-26 00:23:00,49.0,47.0,-100.00,East,85,0.0,0.0,96,-99.99,,,-99.99,,2013-09-26 05:23:00,
2013-09-26 00:34:00,49.0,47.0,-100.00,East,85,0.0,0.0,96,-99.99,,,-99.99,,2013-09-26 05:34:00,
2013-09-26 00:43:00,49.0,47.0,-100.00,East,85,0.0,0.0,96,-99.99,,,-99.99,,2013-09-26 05:43:00,
2013-09-26 00:52:00,48.0,47.0,-100.00,ESE,105,0.0,0.0,96,-99.99,,,-99.99,,2013-09-26 05:52:00,
2013-09-26 01:22:00,48.0,47.0,-100.00,ESE,105,0.0,0.0,96,-99.99,,,-99.99,,2013-09-26 06:22:00,
2013-09-26 01:33:00,48.0,47.0,-100.00,ESE,105,0.0,0.0,96,-99.99,,,-99.99,,2013-09-26 06:33:00,
2013-09-26 01:42:00,48.0,47.0,-100.00,ESE,105,0.0,0.0,96,-99.99,,,-99.99,,2013-09-26 06:42:00,
2013-09-26 01:52:00,47.0,46.0,-100.00,East,90,0.0,0.0,97,-99.99,,,-99.99,,2013-09-26 06:52:00,
2013-09-26 02:22:00,47.0,46.0,-100.00,East,90,0.0,0.0,97,-99.99,,,-99.99,,2013-09-26 07:22:00,
2013-09-26 02:32:00,47.0,46.0,-100.00,East,90,0.0,0.0,97,-99.99,,,-99.99,,2013-09-26 07:32:00,
2013-09-26 02:42:00,47.0,46.0,-100.00,East,90,0.0,0.0,97,-99.99,,,-99.99,,2013-09-26 07:42:00,
2013-09-26 03:22:00,43.0,42.0,-100.00,North,350,0.0,0.0,98,-99.99,,,-99.99,,2013-09-26 08:22:00,
2013-09-26 03:32:00,43.0,42.0,-100.00,North,350,0.0,0.0,98,-99.99,,,-99.99,,2013-09-26 08:32:00,
2013-09-26 03:42:00,43.0,42.0,-100.00,North,350,0.0,0.0,98,-99.99,,,-99.99,,2013-09-26 08:42:00,
2013-09-26 03:52:00,43.0,42.0,-100.00,North,350,0.0,0.0,98,-99.99,,,-99.99,,2013-09-26 08:52:00,
2013-09-26 04:22:00,44.0,43.0,-100.00,East,95,0.0,0.0,98,-99.99,,,-99.99,,2013-09-26 09:22:00,
2013-09-26 04:33:00,44.0,43.0,-100.00,East,95,0.0,0.0,98,-99.99,,,-99.99,,2013-09-26 09:33:00,
2013-09-26 04:43:00,44.0,43.0,-100.00,East,95,0.0,0.0,98,-99.99,,,-99.99,,2013-09-26 09:43:00,
2013-09-26 04:53:00,43.0,43.0,-100.00,East,95,0.0,0.0,98,-99.99,,,-99.99,,2013-09-26 09:53:00,
2013-09-26 05:23:00,43.0,43.0,-100.00,East,95,0.0,0.0,98,-99.99,,,-99.99,,2013-09-26 10:23:00,
2013-09-26 05:32:00,43.0,43.0,-100.00,East,95,0.0,0.0,98,-99.99,,,-99.99,,2013-09-26 10:32:00,
2013-09-26 05:42:00,43.0,43.0,-100.00,East,95,0.0,0.0,98,-99.99,,,-99.99,,2013-09-26 10:42:00,
2013-09-26 05:52:00,44.0,44.0,-100.00,ESE,105,0.0,0.0,98,-99.99,,,-99.99,,2013-09-26 10:52:00,
2013-09-26 06:22:00,44.0,44.0,-100.00,ESE,105,0.0,0.0,98,-99.99,,,-99.99,,2013-09-26 11:22:00,
2013-09-26 06:33:00,44.0,44.0,-100.00,ESE,105,0.0,0.0,98,-99.99,,,-99.99,,2013-09-26 11:33:00,
2013-09-26 06:42:00,44.0,44.0,-100.00,ESE,105,0.0,0.0,98,-99.99,,,-99.99,,2013-09-26 11:42:00,
2013-09-26 06:52:00,43.0,42.0,-100.00,East,100,0.0,0.0,98,-99.99,,,-99.99,,2013-09-26 11:52:00,
2013-09-26 07:22:00,43.0,42.0,-100.00,East,100,0.0,0.0,98,-99.99,,,-99.99,,2013-09-26 12:22:00,
2013-09-26 07:32:00,43.0,42.0,-100.00,East,100,0.0,0.0,98,-99.99,,,-99.99,,2013-09-26 12:32:00,
2013-09-26 07:42:00,43.0,42.0,-100.00,East,100,0.0,0.0,98,-99.99,,,-99.99,,2013-09-26 12:42:00,
2013-09-26 07:52:00,45.0,45.0,-100.00,ESE,110,0.0,0.0,98,-99.99,,,-99.99,,2013-09-26 12:52:00,
2013-09-26 08:22:00,45.0,45.0,-100.00,ESE,110,0.0,0.0,98,-99.99,,,-99.99,,2013-09-26 13:22:00,
2013-09-26 08:32:00,45.0,45.0,-100.00,ESE,110,0.0,0.0,98,-99.99,,,-99.99,,2013-09-26 13:32:00,
2013-09-26 08:42:00,45.0,45.0,-100.00,ESE,110,0.0,0.0,98,-99.99,,,-99.99,,2013-09-26 13:42:00,
2013-09-26 08:52:00,48.0,47.0,-100.00,SE,125,0.0,0.0,98,-99.99,,,-99.99,,2013-09-26 13:52:00,
2013-09-26 09:22:00,48.0,47.0,-100.00,SE,125,0.0,0.0,98,-99.99,,,-99.99,,2013-09-26 14:22:00,
2013-09-26 09:32:00,48.0,47.0,-100.00,SE,125,0.0,0.0,98,-99.99,,,-99.99,,2013-09-26 14:32:00,
2013-09-26 09:42:00,48.0,47.0,-100.00,SE,125,0.0,0.0,98,-99.99,,,-99.99,,2013-09-26 14:42:00,
2013-09-26 10:53:00,57.0,55.0,-100.00,SSE,150,0.0,0.0,96,-99.99,,,-99.99,,2013-09-26 15:53:00,
2013-09-26 11:24:00,57.0,55.0,-100.00,SSE,150,0.0,0.0,96,-99.99,,,-99.99,,2013-09-26 16:24:00,
2013-09-26 11:33:00,57.0,55.0,-100.00,SSE,150,0.0,0.0,96,-99.99,,,-99.99,,2013-09-26 16:33:00,
2013-09-26 11:43:00,57.0,55.0,-100.00,SSE,150,0.0,0.0,96,-99.99,,,-99.99,,2013-09-26 16:43:00,
2013-09-26 11:52:00,59.0,53.0,-100.00,ESE,120,0.0,0.0,81,-99.99,,,-99.99,,2013-09-26 16:52:00,
2013-09-26 12:23:00,59.0,53.0,-100.00,ESE,120,0.0,0.0,81,-99.99,,,-99.99,,2013-09-26 17:23:00,
2013-09-26 12:34:00,59.0,53.0,-100.00,ESE,120,0.0,0.0,81,-99.99,,,-99.99,,2013-09-26 17:34:00,
2013-09-26 12:43:00,59.0,53.0,-100.00,ESE,120,0.0,0.0,81,-99.99,,,-99.99,,2013-09-26 17:43:00,
2013-09-26 12:52:00,65.0,51.0,-100.00,SE,130,0.0,0.0,61,-99.99,,,-99.99,,2013-09-26 17:52:00,
2013-09-26 13:22:00,65.0,51.0,-100.00,SE,130,0.0,0.0,61,-99.99,,,-99.99,,2013-09-26 18:22:00,
2013-09-26 13:32:00,65.0,51.0,-100.00,SE,130,0.0,0.0,61,-99.99,,,-99.99,,2013-09-26 18:32:00,
2013-09-26 13:42:00,65.0,51.0,-100.00,SE,130,0.0,0.0,61,-99.99,,,-99.99,,2013-09-26 18:42:00,
2013-09-26 14:22:00,67.0,49.0,-100.00,SE,135,0.0,0.0,52,-99.99,,,-99.99,,2013-09-26 19:22:00,
2013-09-26 14:32:00,67.0,49.0,-100.00,SE,135,0.0,0.0,52,-99.99,,,-99.99,,2013-09-26 19:32:00,
2013-09-26 14:43:00,67.0,49.0,-100.00,SE,135,0.0,0.0,52,-99.99,,,-99.99,,2013-09-26 19:43:00,
2013-09-26 14:52:00,67.0,49.0,-100.00,SE,135,0.0,0.0,52,-99.99,,,-99.99,,2013-09-26 19:52:00,
2013-09-26 15:22:00,70.0,45.0,-100.00,SE,140,0.0,0.0,42,-99.99,,,-99.99,,2013-09-26 20:22:00,
2013-09-26 15:32:00,70.0,45.0,-100.00,SE,140,0.0,0.0,42,-99.99,,,-99.99,,2013-09-26 20:32:00,
2013-09-26 15:43:00,70.0,45.0,-100.00,SE,140,0.0,0.0,42,-99.99,,,-99.99,,2013-09-26 20:43:00,
2013-09-26 16:53:00,71.0,-99.9,-100.00,SE,130,0.0,0.0,33,-99.99,,,-99.99,,2013-09-26 21:53:00,
2013-09-26 17:24:00,71.0,-99.9,-100.00,SE,130,0.0,0.0,33,-99.99,,,-99.99,,2013-09-26 22:24:00,
2013-09-26 17:32:00,71.0,-99.9,-100.00,SE,130,0.0,0.0,33,-99.99,,,-99.99,,2013-09-26 22:32:00,
2013-09-26 17:43:00,71.0,-99.9,-100.00,SE,130,0.0,0.0,33,-99.99,,,-99.99,,2013-09-26 22:43:00,
2013-09-26 17:52:00,70.0,44.0,-100.00,SE,145,0.0,0.0,39,-99.99,,,-99.99,,2013-09-26 22:52:00,
2013-09-26 18:23:00,70.0,44.0,-100.00,SE,145,0.0,0.0,39,-99.99,,,-99.99,,2013-09-26 23:23:00,
2013-09-26 18:34:00,70.0,44.0,-100.00,SE,145,0.0,0.0,39,-99.99,,,-99.99,,2013-09-26 23:34:00,
2013-09-26 18:42:00,70.0,44.0,-100.00,SE,145,0.0,0.0,39,-99.99,,,-99.99,,2013-09-26 23:42:00,
2013-09-26 18:52:00,65.0,47.0,-100.00,ESE,110,0.0,0.0,53,-99.99,,,-99.99,,2013-09-26 23:52:00,
2013-09-26 19:22:00,65.0,47.0,-100.00,ESE,110,0.0,0.0,53,-99.99,,,-99.99,,2013-09-27 00:22:00,
2013-09-26 19:32:00,65.0,47.0,-100.00,ESE,110,0.0,0.0,53,-99.99,,,-99.99,,2013-09-27 00:32:00,
2013-09-26 19:43:00,65.0,47.0,-100.00,ESE,110,0.0,0.0,53,-99.99,,,-99.99,,2013-09-27 00:43:00,
2013-09-26 20:23:00,61.0,51.0,-100.00,ESE,105,0.0,0.0,70,-99.99,,,-99.99,,2013-09-27 01:23:00,
2013-09-26 20:32:00,61.0,51.0,-100.00,ESE,105,0.0,0.0,70,-99.99,,,-99.99,,2013-09-27 01:32:00,
2013-09-26 20:42:00,61.0,51.0,-100.00,ESE,105,0.0,0.0,70,-99.99,,,-99.99,,2013-09-27 01:42:00,
2013-09-26 20:52:00,61.0,51.0,-100.00,ESE,105,0.0,0.0,70,-99.99,,,-99.99,,2013-09-27 01:52:00,
2013-09-26 20:53:00,59.0,52.0,-100.00,ESE,115,0.0,0.0,76,-99.99,,,-99.99,,2013-09-27 01:53:00,
2013-09-26 21:22:00,59.0,52.0,-100.00,ESE,115,0.0,0.0,76,-99.99,,,-99.99,,2013-09-27 02:22:00,
2013-09-26 21:32:00,59.0,52.0,-100.00,ESE,115,0.0,0.0,76,-99.99,,,-99.99,,2013-09-27 02:32:00,
2013-09-26 21:42:00,59.0,52.0,-100.00,ESE,115,0.0,0.0,76,-99.99,,,-99.99,,2013-09-27 02:42:00,
2013-09-26 21:53:00,59.0,53.0,-100.00,ESE,110,0.0,0.0,80,-99.99,,,-99.99,,2013-09-27 02:53:00,
2013-09-26 22:22:00,59.0,53.0,-100.00,ESE,110,0.0,0.0,80,-99.99,,,-99.99,,2013-09-27 03:22:00,
2013-09-26 22:34:00,59.0,53.0,-100.00,ESE,110,0.0,0.0,80,-99.99,,,-99.99,,2013-09-27 03:34:00,
2013-09-26 22:44:00,59.0,53.0,-100.00,ESE,110,0.0,0.0,80,-99.99,,,-99.99,,2013-09-27 03:44:00,
2013-09-26 22:52:00,58.0,52.0,-100.00,ESE,115,0.0,0.0,83,-99.99,,,-99.99,,2013-09-27 03:52:00,
2013-09-26 23:24:00,58.0,52.0,-100.00,ESE,115,0.0,0.0,83,-99.99,,,-99.99,,2013-09-27 04:24:00,
2013-09-26 23:33:00,58.0,52.0,-100.00,ESE,115,0.0,0.0,83,-99.99,,,-99.99,,2013-09-27 04:33:00,
2013-09-26 23:44:00,58.0,52.0,-100.00,ESE,115,0.0,0.0,83,-99.99,,,-99.99,,2013-09-27 04:44:00,